EHI
0 0 0 0 0 0 0 0 0 0 0 0 0 0 0 0 0 0 0 0 0 0 0 0 0 0 0 0 0 0 0 0 0 0 0 0 0 0
0 0 0 0 0 0 0 0 0 0 0 0 0 0 0 0 0 0 0 0 0 0 0 0 0 0 0 0 0 0 0 0 0 0 0 0 0 0
0 0 0 0 0 0 0 0 0 0 0 0 0 0 0 0 0 0 0 0 0 0 0 0 0 0 0 0 0 0 0 0 0 0 0 0 0 0
0 0 0 0 0 0 0 0 0 0 0 0 0 0 0 0 0 0 0 0 0 0 0 0 0 0 0 0 0 0 0 0 0 0 0 0 0 0
0 0 0 0 0 0 0 0 0 0 0 0 0 0 0 0 0 0 0 0 0 0 0 0 0 0 0 0 0 0 0 0 0 0 0 0 0 0
0 0 0 0 0 0 0 0 0 0 0 0 0 0 0 0 0 0 0 0 0 0 0 0 0 0 0 0 0 0 0 0 0 0 0 0 0 0
0 0 0 0 0 0 0 0 0 0 0 0 0 0 0 0 0 0 0 0 0 0 0 0 0 0 0 0 0 0 0 0 0 0 0 0 0 0
0 0 0 0 0 0 0 0 0 0 0 0 0 0 0 0 0 0 0 0 0 0 0 0 0 0 0 0 0 0 0 0 0 0 0 0 0 0
0 0 0 0 0 0 0 0 0 0 0 0 0 0 0 0 0 0 0 0 0 0 0 0 0 0 0 0 0 0 0 0 0 0 0 0 0 0
0 0 0 0 0 0 0 0 0 0 0 0 0 0 0 0 0 0 0 0 0 0 0 0 0 0 0 0 0 0 0 0 0 0 0 0 0 0
0 0 0 0 0 0 0 0 0 0 0 0 0 0 0 0 0 0 0 0 0 0 0 0 0 0 0 0 0 0 0 0 0 0 0 0 0 0
0 0 0 0 0 0 0 0 0 0 0 0 0 0 0 0 0 0 0 0 0 0 0 0 0 0 0 0 0 0 0 0 0 0 0 0 0 0
0 0 0 0 0 0 0 0 0 0 0 0 0 0 0 0 0 0 0 0 0 0 0 0 0 0 0 0 0 0 0 0 0 0 0 0 0 0
0 0 0 0 0 0 0 0 0 0 0 0 0 0 0 0 0 0 0 0 0 0 0 0 0 0 0 0 0 0 0 0 0 0 0 0 0 0
0 0 0 0 0 0 0 0 0 0 0 0 0 0 0 0 0 0 0 0 0 0 0 0 0 0 0 0 0 0 0 0 0 0 0 0 0 0
0 0 0 0 0 0 0 0 0 0 0 0 0 0 0 0 0 0 0 0 0 0 0 0 0 0 0 0 0 0 0 0 0 0 0 0 0 0
0 0 0 0 0 0 0 0 0 0 0 0 0 0 0 0 0 0 0 0 0 0 0 0 0 0 0 0 0 0 0 0 0 0 0 0 0 0
0 0 0 0 0 0 0 0 0 0 0 0 0 0 0 0 0 0 0 0 0 0 0 0 0 0 0 0 0 0 0 0 0 0 0 0 0 0
0 0 0 0 0 0 0 0 0 0 0 0 0 0 0 0 0 0 0 0 0 0 0 0 0 0 0 0 0 0 0 0 0 0 0 0 0 0
0 0 0 0 0 0 0 0 0 0 0 0 0 0 0 0 0 0 0 0 0 0 0 0 0 0 0 0 0 0 0 0 0 0 0 0 0 0
0 0 0 0 0 0 0 0 0 0 0 0 0 0 0 0 0 0 0 0 0 0 0 0 0 0 0 0 0 0 0 0 0 0 0 0 0 0
0 0 0 0 0 0 0 0 0 0 0 0 0 0 0 0 0 0 0 0 0 0 0 0 0 0 0 0 0 0 0 0 0 0 0 0 0 0
0 0 0 0 0 0 0 0 0 0 0 0 0 0 0 0 0 0 0 0 0 0 0 0 0 0 0 0 0 0 0 0 0 0 0 0 0 0
Wind_Speed
3 3 3 3 2 2 2 2 2 3 3 3 2 2 1 1 2 1 1 2 4 6 6 6 6 4 6 10 13 17 21 25 26 26 26 24 23 22
1 2 2 2 2 2 2 2 2 3 3 3 3 4 4 3 3 2 1 1 2 4 4 5 4 3 4 9 14 19 22 24 24 23 22 21 20 18
4 4 4 4 3 3 3 3 2 2 4 4 3 4 4 3 2 2 1 0 1 2 3 4 5 6 9 12 16 20 22 23 23 22 21 19 17 16
5 5 6 4 5 4 4 4 3 3 4 6 4 3 4 3 2 2 2 1 1 1 2 4 6 8 11 13 16 18 20 21 21 20 19 17 16 15
6 6 6 6 6 4 5 5 4 4 3 4 5 3 3 1 1 2 2 1 2 2 3 4 5 8 10 12 15 16 17 17 17 16 15 15 14 13
6 6 6 5 5 5 5 5 5 5 5 4 4 4 3 2 1 1 2 2 2 3 3 3 5 6 8 10 12 14 14 14 15 14 14 13 13 13
7 6 7 9 9 6 4 5 5 5 5 5 4 4 4 4 3 1 2 2 3 2 3 3 4 4 5 8 10 12 12 12 13 13 13 13 13 12
6 6 6 9 10 10 9 7 6 5 5 4 4 5 6 5 4 3 2 2 3 3 4 4 4 5 5 6 9 12 13 13 13 13 13 13 13 13
6 6 6 8 9 8 8 8 8 8 6 2 3 4 5 5 6 5 3 2 2 2 4 4 4 5 5 7 12 13 14 15 15 14 14 14 14 14
5 5 5 7 9 8 7 8 8 8 7 5 3 4 4 6 5 4 4 3 1 0 2 3 3 3 3 5 10 14 15 16 15 15 15 15 15 15
4 5 6 6 10 10 8 8 8 8 7 8 7 7 8 10 9 6 6 3 2 1 1 0 2 2 2 3 5 11 13 14 15 14 14 14 14 13
3 4 7 8 9 9 6 6 7 7 8 9 8 10 9 9 11 8 6 4 3 2 2 2 1 1 1 1 3 4 6 8 10 11 11 12 11 8
3 4 5 10 9 8 6 5 5 5 5 6 6 7 8 8 8 8 6 4 3 2 2 2 1 1 0 1 1 2 3 3 5 5 8 9 10 9
2 3 4 8 8 8 6 7 8 6 5 6 6 7 7 8 8 8 7 5 2 2 3 2 1 1 1 1 1 1 2 2 3 3 4 5 7 9
2 4 5 6 5 5 8 9 7 5 5 5 5 5 5 6 7 6 7 6 4 4 5 3 2 1 1 2 1 1 1 1 2 3 3 4 4 4
3 4 5 6 5 4 5 5 5 4 4 4 4 4 5 5 6 6 6 7 5 5 6 6 4 2 1 2 2 1 1 1 1 2 2 2 2 2
2 2 3 3 4 4 4 4 4 4 4 4 4 5 5 6 5 5 5 5 5 5 7 6 5 3 1 2 1 1 0 0 0 1 2 2 2 2
2 2 2 2 2 2 3 3 3 4 4 4 4 4 5 5 5 5 5 5 5 5 6 6 7 5 3 3 5 3 2 2 1 0 1 2 3 2
2 1 0 0 0 0 1 1 2 3 3 4 4 5 5 5 5 5 6 5 5 5 5 5 5 5 5 4 5 6 4 3 2 0 0 0 1 2
1 1 1 1 1 1 0 1 1 2 2 3 4 4 5 5 5 5 5 6 6 5 5 5 6 5 3 3 3 4 6 4 2 1 1 1 1 1
3 3 3 2 2 2 1 1 1 1 2 2 3 4 4 4 5 5 5 6 6 6 6 6 6 7 4 2 2 2 2 4 3 1 1 0 0 1
5 4 4 4 3 3 2 2 1 1 1 1 2 3 3 3 4 5 5 5 5 5 6 6 7 6 3 3 3 3 3 3 3 3 3 2 1 2
6 6 5 5 4 4 3 3 3 2 1 0 1 2 3 3 3 4 4 5 5 6 6 6 6 5 4 4 3 3 4 4 3 2 2 6 7 5
Wind_Direction
302 303 298 301 300 297 289 274 284 302 301 291 296 302 287 252 223 233 262 312 337 337 333 331 324 284 219 193 180 173 166 165 165 168 170 172 174 180
340 356 357 345 344 344 327 308 271 266 281 287 280 289 292 267 212 216 233 326 356 351 353 5 19 55 137 155 155 151 152 156 159 162 163 167 176 183
26 30 20 11 10 5 1 353 336 299 283 288 277 294 285 273 226 208 201 240 355 16 27 47 66 89 110 126 133 139 144 149 154 158 164 171 178 182
36 35 24 20 20 10 7 4 348 328 303 302 306 304 292 286 245 211 201 208 195 107 85 83 88 99 111 121 128 134 140 146 153 161 169 173 178 185
48 42 25 21 17 5 2 1 349 341 321 309 309 305 299 307 244 212 205 206 201 161 129 109 110 114 119 125 132 138 145 151 158 165 171 178 185 191
43 36 27 23 13 359 1 359 353 352 347 340 325 324 315 311 270 216 206 204 206 179 153 137 133 129 134 139 145 151 157 162 167 174 180 187 192 197
38 28 29 32 29 20 13 0 360 0 358 357 351 348 347 346 329 290 238 201 205 182 164 169 159 159 164 165 169 171 174 178 183 188 191 196 201 206
39 20 21 26 14 14 17 19 18 10 360 357 353 353 345 332 322 310 268 205 214 188 176 184 178 188 191 193 192 189 191 194 198 202 204 207 211 215
45 31 27 16 13 5 2 15 22 23 20 347 352 347 334 329 326 320 297 262 237 180 169 186 185 201 202 206 201 203 205 207 209 211 214 217 220 223
48 36 28 14 11 3 8 17 17 18 15 18 4 335 330 328 324 310 306 297 305 96 166 182 182 196 196 204 207 209 212 215 216 218 221 223 225 227
39 33 29 19 5 15 24 16 12 8 5 13 21 19 16 16 10 9 5 3 360 357 2 164 157 178 191 211 210 211 213 213 215 218 222 225 226 226
28 21 24 17 8 18 29 22 13 353 350 0 9 11 13 17 21 23 9 6 3 359 359 8 26 114 202 201 204 201 208 212 212 217 220 223 217 214
33 9 0 2 10 20 32 30 359 338 351 9 13 12 11 10 10 9 4 0 2 354 343 357 2 6 324 306 249 204 203 198 194 205 213 216 207 203
27 351 343 358 20 28 30 24 21 23 24 27 25 15 8 0 352 350 353 355 347 333 332 343 349 338 320 283 274 252 215 204 196 192 186 192 206 216
358 345 357 14 26 32 31 29 29 29 27 28 20 6 347 338 344 347 357 2 13 21 17 8 344 293 247 263 277 259 242 212 194 189 182 182 184 188
8 1 19 33 41 31 25 25 28 26 26 19 358 346 346 357 6 2 359 358 6 4 4 5 2 345 314 286 268 270 246 225 186 186 170 167 170 169
2 26 33 32 34 30 27 22 18 18 18 7 2 359 360 4 6 0 359 1 10 360 356 354 351 352 345 342 336 325 318 321 348 159 156 146 144 154
88 63 49 43 41 29 24 19 19 17 11 9 11 9 4 2 2 5 7 9 7 1 1 357 355 4 18 55 29 6 11 10 9 2 172 162 160 162
95 104 111 132 86 47 35 32 23 13 10 20 21 14 8 6 6 5 6 4 4 1 0 1 10 14 13 2 9 22 8 357 353 359 295 259 172 170
191 204 213 219 218 204 154 88 52 32 32 30 25 19 13 10 10 7 8 6 0 358 2 9 12 7 354 334 330 351 11 4 350 340 10 38 48 53
218 220 220 217 214 205 193 174 144 76 45 34 27 20 14 10 8 4 1 2 3 1 360 356 339 324 301 293 306 344 358 7 10 355 351 328 256 204
220 220 217 211 205 198 193 189 181 157 83 39 23 12 6 5 1 358 358 354 351 348 342 336 335 340 350 357 352 346 346 352 5 44 61 31 317 264
215 214 212 208 203 197 196 198 200 201 198 167 14 2 357 355 352 353 355 358 353 352 347 344 346 347 346 344 341 341 353 353 346 353 10 8 354 321